DW9005 Weather Reports


time (UTC)temp
C
wind
direction
speed
KPH
gust
KPH
rain 1hr
cm
rain 24hr
cm
rain mn
cm
humidity
%
barometer
mb
20260510173053 23 140 0.0 0.0 0.00 0.00 0.00 73 1017.7
20260510171553 23 242 0.0 0.0 0.00 0.00 0.00 76 1017.9
20260510170029 23 144 0.0 0.0 0.00 0.00 0.00 78 1017.8
20260510164529 22 153 0.0 0.0 0.00 0.00 0.00 81 1018.0
20260510163009 22 98 0.0 0.0 0.00 0.00 0.00 81 1018.0
20260510161509 22 194 0.0 0.0 0.00 0.00 0.00 80 1017.9
20260510160050 22 126 0.0 0.0 0.00 0.00 0.00 80 1018.0
20260510154554 22 300 0.0 0.0 0.00 0.00 0.00 82 1017.8
20260510153026 21 123 0.0 0.0 0.00 0.00 0.00 83 1018.0
20260510151531 20 338 0.0 0.0 0.00 0.00 0.00 86 1017.8
20260510150002 20 306 0.0 0.0 0.00 0.00 0.00 86 1018.0
20260510144600 19 186 0.0 0.0 0.00 0.00 0.00 88 1018.0
20260510143040 19 147 0.0 0.0 0.00 0.00 0.00 89 1018.1
20260510141540 -17 0.0 0.0 0.00 0.00 0.00 1018.2
20260510140016 -17 0.0 0.0 0.00 0.00 0.00 1018.3
20260510134512 -17 0.0 0.0 0.00 0.00 0.00 1018.1
20260510133050 -17 0.0 0.0 0.00 0.00 0.00 1018.1
20260510131546 -17 0.0 0.0 0.00 0.00 0.00 1017.7
20260510130025 -17 0.0 0.0 0.00 0.00 0.00 1017.7
20260510124527 -17 0.0 0.0 0.00 0.00 0.00 1017.5
20260510123101 -17 0.0 0.0 0.00 0.00 0.00 1017.3
20260510121556 -17 0.0 0.0 0.00 0.00 0.00 1017.1
20260510120033 -17 0.0 0.0 0.00 0.00 0.00 1016.7
20260510114529 -17 0.0 0.0 0.00 0.00 0.00 1016.4
20260510113008 -17 0.0 0.0 0.00 0.00 0.00 1016.1
20260510111503 -17 0.0 0.0 0.00 0.00 0.00 1015.8
20260510110045 -17 0.0 0.0 0.00 0.00 0.00 1015.7
20260510104538 -17 0.0 0.0 0.00 0.00 0.00 1015.6
20260510103016 -17 0.0 0.0 0.00 0.00 0.00 1015.3
20260510101512 -17 0.0 0.0 0.00 0.00 0.00 1015.1
20260510100053 17 87 0.0 0.0 0.00 0.00 0.00 93 1015.0
20260510094556 17 229 0.0 0.0 0.00 0.00 0.00 94 1014.8
20260510093033 17 347 0.0 0.0 0.00 0.00 0.00 93 1014.6
20260510091534 17 347 0.0 0.0 0.00 0.00 0.00 94 1014.5
20260510090011 16 157 0.0 0.0 0.00 0.00 0.00 93 1014.4
20260510084517 16 161 0.0 0.0 0.00 0.00 0.00 93 1014.2
20260510083105 16 161 0.0 0.0 0.00 0.00 0.00 93 1014.2
20260510081553 16 158 0.0 0.0 0.00 0.00 0.00 93 1014.0
20260510080034 16 160 0.0 0.0 0.00 0.00 0.00 93 1014.1
20260510074534 16 159 0.0 0.0 0.00 0.00 0.00 93 1013.9
20260510073020 16 155 0.0 0.0 0.00 0.00 0.00 93 1013.8
20260510071514 16 155 0.0 0.0 0.00 0.00 0.00 93 1014.0
20260510070001 16 155 0.0 0.0 0.00 0.00 0.00 93 1014.2
20260510064606 16 155 0.0 0.0 0.00 0.00 0.00 93 1014.2
20260510063059 16 155 0.0 0.0 0.00 0.00 0.00 93 1014.3
20260510061600 16 155 0.0 0.0 0.00 0.00 0.00 93 1014.3
20260510060058 16 155 0.0 0.0 0.00 0.00 0.00 93 1014.4
20260510054556 16 155 0.0 0.0 0.00 0.00 0.00 93 1014.4
20260510053055 16 155 0.0 0.0 0.00 0.00 0.00 92 1014.5
20260510051603 16 155 0.0 0.0 0.00 0.00 0.00 92 1014.6
20260510050035 16 155 0.0 0.0 0.00 0.00 0.00 92 1014.6
20260510044534 16 155 0.0 0.0 0.00 0.00 0.00 92 1014.6
20260510043015 17 155 0.0 0.0 0.00 0.00 0.00 92 1014.6
20260510041513 17 155 0.0 0.0 0.00 0.00 0.00 92 1014.7
20260510040057 17 155 0.0 0.0 0.00 0.00 0.00 92 1014.6
20260510034554 17 155 0.0 0.0 0.00 0.00 0.00 91 1014.7
20260510033036 17 155 0.0 0.0 0.00 0.00 0.00 91 1014.6
20260510031536 18 155 0.0 0.0 0.00 0.00 0.00 91 1014.6
20260510030019 18 155 0.0 0.0 0.00 0.00 0.00 91 1014.7
20260510024515 18 155 0.0 0.0 0.00 0.00 0.00 90 1014.5
20260510023114 18 157 0.0 0.0 0.00 0.00 0.00 90 1014.4
20260510021601 18 157 0.0 0.0 0.00 0.00 0.00 90 1014.2
20260510020053 19 157 0.0 0.0 0.00 0.00 0.00 90 1013.9
20260510014541 19 157 0.0 0.0 0.00 0.00 0.00 89 1013.7
20260510013040 19 157 0.0 0.0 0.00 0.00 0.00 89 1013.4
20260510011546 19 186 0.0 0.0 0.00 0.00 0.00 89 1013.2
20260510010039 20 167 0.0 0.0 0.00 0.00 0.00 88 1012.9
20260510004539 20 171 0.0 0.0 0.00 0.00 0.00 88 1012.7
20260510003041 20 346 0.0 0.0 0.00 0.00 0.00 87 1012.7
20260510001538 20 172 0.0 0.0 0.00 0.00 0.00 86 1012.7
20260510000041 20 151 0.0 0.0 0.00 0.00 0.00 85 1012.4
20260509234530 21 128 0.0 0.0 0.00 0.00 0.00 85 1012.3
20260509233020 21 171 0.0 0.0 0.00 0.00 0.00 84 1012.1
20260509231510 21 165 0.0 0.0 0.00 0.00 0.00 83 1012.0
20260509230002 21 123 0.0 0.0 0.00 0.00 0.00 82 1011.7
20260509224555 22 171 0.0 0.0 0.00 0.00 0.00 81 1011.8
20260509223052 22 157 0.0 0.0 0.00 0.00 0.00 81 1011.7
20260509221550 22 175 0.0 0.0 0.00 0.00 0.00 79 1011.5
20260509220049 22 190 0.0 0.0 0.00 0.00 0.00 78 1011.4
20260509214549 22 197 0.0 0.0 0.00 0.00 0.00 77 1011.4
20260509213104 23 161 0.0 0.0 0.00 0.00 0.00 76 1011.4
20260509211552 23 136 0.0 0.0 0.00 0.00 0.00 75 1011.2
20260509210101 23 164 0.0 0.0 0.00 0.00 0.00 73 1011.0
20260509204529 23 260 0.0 0.0 0.00 0.00 0.00 70 1011.1
20260509203038 23 184 0.0 0.0 0.00 0.00 0.00 73 1011.3
20260509201511 23 162 0.0 0.0 0.00 0.00 0.00 73 1011.2
20260509200011 23 138 0.0 0.0 0.00 0.00 0.00 71 1011.3
20260509194552 23 142 0.0 0.0 0.00 0.00 0.00 73 1011.5
20260509193052 23 68 0.0 0.0 0.00 0.00 0.00 72 1011.5
20260509191539 24 19 0.0 0.0 0.00 0.00 0.00 72 1011.9
20260509190031 23 249 0.0 0.0 0.00 0.00 0.00 75 1012.1
20260509184511 23 200 0.0 0.0 0.00 0.00 0.00 77 1012.1
20260509183009 22 104 0.0 0.0 0.00 0.00 0.00 75 1012.2
20260509181558 22 137 0.0 0.0 0.00 0.00 0.00 77 1012.5
20260509180049 22 210 0.0 0.0 0.00 0.00 0.00 80 1012.6
20260509174529 21 142 0.0 0.0 0.00 0.00 0.00 80 1012.8